NOAA 16 DEB, 41160

Orbit data source: Space-Track

NOAA 16 DEB, 41160 is space debris in SSO originally from a launch on Thu, 21 Sep 2000 UTC launched from the Air Force Western Test Range (AFWTR). Debris objects in space refer to the collection of defunct objects orbiting the Earth. Examples of debris include non-operational satellites, rocket bodies, and fragments generated from explosions, collisions, or faulty payload assembly.

Loading next visibility...
Identifier
41160, 2000-055CT
Orbit
SSO
Country
Flag of USUS
Related business
Manufacturer
Unknown
Mission
Spacecraft
Bus & Motor
Unknown
Mass
Unknown
Launch date (UTC)
2000-09-21 (26 years ago)
Launch vehicle
Unknown
Launch site
Air Force Western Test Range (AFWTR)
Object type
Payload
Rocket body
Debris
Shape & HBR
Unknown shape, 0.1 m
Radar Cross Section
Small (<0.1 m²)

Expand to show TLE details & history
Last TLE update: 1 day ago

TLE from 1 day ago
0 NOAA 16 DEB
1 41160U 00055CT  26127.27131959  .00009933  00000-0  24814-2 0  9992
2 41160  98.8326 241.4854 0013875 232.7386 127.2543 14.51683086539499
Epoch: 2026-05-07T06:30Z
TLE epoch observation values (Epoch: 2026-05-07T06:30:42.012Z)
Latitude
-0°
Longitude
-81.3095°
Altitude
729.082 km
Speed
7.487 km/s
True Right ascension
16h 05m 56s
True Declination
0° 00' 00"
Sunlit
Object was in full shadow at epoch
Visualization orbit readout
Latitude
Unknown
Longitude
Unknown
Altitude
Unknown
Speed
Unknown
Apparent Right ascension
Unknown
Apparent Declination
Unknown
Sunlit
N/A
Visualization observer readout
Local Sidereal Time
02:14:44
Azimuth
Unknown
Elevation
Unknown
Doppler factor
Unknown
Orbital elements
Apogee altitude
727.124 km
Perigee altitude
707.434 km
Semi-major axis
7,095.416 km
Eccentricity
0.00139
Inclination
98.8326°
RAAN
241.4854°
Arg. of periapsis
232.7386°
True anomaly
127.38072°
Mean anomaly
127.2543°
Eccentric anomaly
127.31752°
Mean motion
3.63142 °/min
Orbital period
99.13 mins
BSTAR
0.0024814
Loading maneuver chart data...
Computing Atmospheric mass density...
Loading historical data...
Loading historical data...
Loading historical data...
Loading historical data...
Loading historical data...
Loading historical data...
Loading historical data...

Documentation

Showing up to 5 results
|